Weather History for Kuwait, Kuwait

Change the Weather History Date:

Monday, June 14, 2010

  Actual Average Record
Temperature  
Mean Temperature 108 °F -  
Max Temperature 122 °F 110 °F 115 °F (2012)
Min Temperature 93 °F 83 °F 78 °F (2005)
Cooling Degree Days 42    
Growing Degree Days 58 (Base 50)    
Moisture  
Dew Point 28 °F    
Average Humidity 7    
Maximum Humidity 12    
Minimum Humidity 4    
Precipitation  
Precipitation 0.00 in 0.00 in - ()
Sea Level Pressure  
Sea Level Pressure 29.53 in    
Wind  
Wind Speed 10 mph ()    
Max Wind Speed 20 mph    
Max Gust Speed -    
Visibility 4.9 miles    
Events      
Averages and records for this station are not official NWS values.
T = Trace of Precipitation, MM = Missing Value Source: Averaged Metar Reports

Daily Weather History Graph

Daily Weather History Graph

Search for Another Location

Airport:

Trip Planner

Search our weather history database for the weather conditions in past years. The results will help you decide how hot, cold, wet, or windy it might be!

Date:

Astronomy

Jun. 14, 2010 Rise Set
Actual Time 4:48 AM AST 6:48 PM AST
Civil Twilight 4:21 AM AST 7:15 PM AST
Nautical Twilight 3:48 AM AST 7:48 PM AST
Astronomical Twilight 3:13 AM AST 8:23 PM AST
Moon 6:33 AM AST (6/14) 8:45 PM AST (6/14)
Length of Visible Light 14h 54m
Length of Day
14h 00m
Waxing Crescent, 5% of the Moon is Illuminated
Jun 14
Waxing Crescent
Jun 19
First Quarter
Jun 26
Full
Jul 4
Last Quarter
Jul 11
New

Hourly Weather History & Observations

Time (AST) Temp. Dew Point Humidity Pressure Visibility Wind Dir Wind Speed Gust Speed Precip Events Conditions
12:00 AM 105.8 °F 33.8 °F 8% 29.56 in 5.0 mi NNW 13.8 mph - N/A   Clear
12:30 AM 104.0 °F 37.4 °F 10% 29.53 in 5.0 mi North 12.7 mph - N/A   Clear
1:00 AM 104.0 °F 37.4 °F 10% 29.56 in 5.0 mi North 13.8 mph - N/A   Clear
1:30 AM 100.4 °F 37.4 °F 11% 29.53 in 5.0 mi North 9.2 mph - N/A   Clear
2:00 AM 100.4 °F 37.4 °F 11% 29.53 in 5.0 mi NNW 9.2 mph - N/A   Clear
2:30 AM 100.4 °F 37.4 °F 11% 29.53 in 5.0 mi North 11.5 mph - N/A   Clear
3:00 AM 100 °F 36 °F 5% 29.55 in 5 mi NNW 8.1 mph - -   Haze
3:30 AM 95.0 °F 33.8 °F 12% 29.56 in 5.0 mi West 3.5 mph - N/A   Clear
4:00 AM 93.2 °F 32.0 °F 11% 29.53 in - NW 5.8 mph - N/A   Clear
4:30 AM 95.0 °F 32.0 °F 11% 29.53 in - NW 6.9 mph - N/A   Clear
5:00 AM 93.2 °F 32.0 °F 11% 29.56 in - NW 5.8 mph - N/A   Clear
5:30 AM 93.2 °F 32.0 °F 11% 29.56 in - Calm Calm - N/A   Clear
6:00 AM 96.8 °F 35.6 °F 12% 29.56 in 5.0 mi North 3.5 mph - N/A   Clear
6:30 AM 100.4 °F 37.4 °F 11% 29.56 in 5.0 mi North 4.6 mph - N/A   Clear
7:00 AM 102.2 °F 37.4 °F 11% 29.56 in 5.0 mi North 9.2 mph - N/A   Clear
7:30 AM 105.8 °F 33.8 °F 8% 29.59 in 4.3 mi North 15.0 mph - N/A   Clear
8:00 AM 105.8 °F 32.0 °F 8% 29.59 in 4.3 mi North 16.1 mph - N/A   Clear
8:30 AM 107.6 °F 30.2 °F 7% 29.59 in 4.3 mi North 16.1 mph - N/A   Clear
9:00 AM 110 °F 31 °F 4% 29.58 in 4 mi NNW 16.1 mph - -   Haze
9:00 AM 109.4 °F 30.2 °F 6% 29.59 in 4.3 mi NNW 16.1 mph - N/A   Clear
9:30 AM 109.4 °F 30.2 °F 6% 29.59 in 5.0 mi NNW 15.0 mph - N/A   Clear
10:00 AM 111.2 °F 30.2 °F 6% 29.59 in 5.0 mi NNW 16.1 mph - N/A   Clear
10:30 AM 113.0 °F 30.2 °F 6% 29.59 in 5.0 mi NNW 17.3 mph - N/A   Clear
11:00 AM 114.8 °F 28.4 °F 5% 29.56 in 5.0 mi North 19.6 mph - N/A   Light Blowing Widespread Dust
11:30 AM 116.6 °F 24.8 °F 4% 29.56 in 4.3 mi North 19.6 mph - N/A   Light Blowing Widespread Dust
12:00 PM 118.4 °F 23.0 °F 4% 29.56 in - North 16.1 mph - N/A   Clear
12:30 PM 120.2 °F 17.6 °F 4% 29.56 in - North 15.0 mph - N/A   Clear
1:00 PM 120.2 °F 15.8 °F 4% 29.53 in - NNE 15.0 mph - N/A   Clear
1:30 PM 122.0 °F 12.2 °F 4% 29.53 in - NNE 12.7 mph - N/A   Clear
2:00 PM 122.0 °F 12.2 °F 4% 29.53 in - NNE 19.6 mph - N/A   Clear
2:30 PM 122.0 °F 15.8 °F 4% 29.50 in - NE 16.1 mph - N/A   Clear
3:00 PM 122 °F 15 °F 4% 29.50 in 6 mi NE 15.0 mph - -  
3:00 PM 122.0 °F 14.0 °F 4% 29.50 in - NE 15.0 mph - N/A   Clear
3:30 PM 122.0 °F 14.0 °F 4% 29.50 in - NE 16.1 mph - N/A   Clear
4:00 PM 122.0 °F 14.0 °F 4% 29.50 in - NE 9.2 mph - N/A   Clear
4:30 PM 122.0 °F 15.8 °F 4% 29.47 in - NE 9.2 mph - N/A   Clear
5:00 PM 118.4 °F 26.6 °F 4% 29.47 in - East 4.6 mph - N/A   Clear
5:30 PM 118.4 °F 23.0 °F 4% 29.47 in - East 3.5 mph - N/A   Clear
6:00 PM 116.6 °F 21.2 °F 4% 29.47 in - Calm Calm - N/A   Clear
6:30 PM 114.8 °F 21.2 °F 4% 29.50 in - South 3.5 mph - N/A   Clear
7:00 PM 113.0 °F 21.2 °F 4% 29.50 in - South 3.5 mph - N/A   Clear
7:30 PM 107.6 °F 23.0 °F 5% 29.50 in - West 5.8 mph - N/A   Clear
8:00 PM 107.6 °F 30.2 °F 7% 29.50 in - North 3.5 mph - N/A   Clear
8:30 PM 111.2 °F 28.4 °F 6% 29.50 in - North 10.4 mph - N/A   Clear
9:00 PM 110 °F 29 °F 4% 29.51 in 6 mi North 11.5 mph - -  
9:00 PM 111.2 °F 30.2 °F 6% 29.50 in - North 11.5 mph - N/A   Clear
9:30 PM 109.4 °F 32.0 °F 7% 29.50 in - North 12.7 mph - N/A   Clear
10:00 PM 109.4 °F 32.0 °F 7% 29.50 in - North 12.7 mph - N/A   Clear
10:30 PM 107.6 °F 32.0 °F 7% 29.50 in - North 10.4 mph - N/A   Clear
11:00 PM 107.6 °F 33.8 °F 8% 29.50 in - NNW 12.7 mph - N/A   Clear
11:30 PM 105.8 °F 33.8 °F 8% 29.50 in - North 13.8 mph - N/A   Clear